Regional Weather Roundup
Issued by NWS

Home | Current Version | Previous Version | Graphics & Text | Print | Product List | Glossary On
Versions: 1 2 3 4 5 6 7 8 9 10 11 12 13 14 15 16 17 18 19 20 21 22 23 24 25 26 27 28 29 30 31 32 33 34 35 36 37 38 39 40 41 42 43 44 45 46 47 48 49 50
000
ASUS43 KMKX 231911
RWRWI

WISCONSIN REGIONAL WEATHER ROUNDUP
NATIONAL WEATHER SERVICE MILWAUKEE/SULLIVAN WI
200 PM CDT WED APR 23 2014

NOTE: "FAIR" INDICATES FEW OR NO CLOUDS BELOW 12,000 FEET WITH NO
SIGNIFICANT WEATHER AND/OR OBSTRUCTIONS TO VISIBILITY.

WIZ001-002-006>008-014>016-023>028-232000-
NORTHWEST WISCONSIN

CITY           SKY/WX    TMP DP  RH WIND       PRES   REMARKS
SUPERIOR ARPT  CLOUDY    44  28  53 NE9       30.09F
ASHLAND        PTSUNNY   50  31  48 N13       30.11F
HAYWARD        CLOUDY    53  23  31 S12       30.08F
SIREN          CLOUDY    50  24  35 SE13      30.07F
RICE LAKE      CLOUDY    51  24  34 SE13G20   30.10F
LADYSMITH      CLOUDY    51  26  39 S7        30.12F
EAU CLAIRE     CLOUDY    52  24  33 E10       30.08F
MENOMONIE      CLOUDY    52  26  37 E8        30.08F
NEW RICHMOND   CLOUDY    49  27  42 E9        30.07S
OSCEOLA        CLOUDY    49  29  45 SE13G18   30.08F
$$

WIZ003>005-009-010-017-018-232000-
NORTH CENTRAL WISCONSIN

CITY           SKY/WX    TMP DP  RH WIND       PRES   REMARKS
WOODRUFF       CLOUDY    56  23  28 S7        30.10F
RHINELANDER    PTSUNNY   50  22  33 S8        30.12F
EAGLE RIVER    CLOUDY    52  17  25 S5        30.11S
LAND O LAKES   CLOUDY    52  16  24 SE7       30.12S
PHILLIPS       CLOUDY    51  25  36 S8        30.09F
TOMAHAWK       PTSUNNY   53  22  29 CALM      30.10F
MEDFORD        CLOUDY    48  26  42 SE7       30.10F
MERRILL        PTSUNNY   50  24  36 S5        30.11F
$$

WIZ029-030-035-036-043>047-232000-
CENTRAL WISCONSIN

CITY           SKY/WX    TMP DP  RH WIND       PRES   REMARKS
WAUSAU         CLOUDY    50  24  36 SE6       30.11F
MOSINEE        SUNNY     46  25  42 E7        30.14F
MARSHFIELD     CLOUDY    50  25  37 SE9       30.11F
STEVENS POINT  CLOUDY    48  22  36 E10       30.13F
WAUPACA        CLOUDY    54  21  28 E8        30.15F
WAUTOMA        CLOUDY    51  23  33 E7        30.14F
WISC RAPIDS    CLOUDY    52  20  28 SE9       30.13F
CAMP DOUGLAS   CLOUDY    54  23  30 VRB6      30.10F
$$

WIZ011>013-019>022-031-037>040-048>050-232000-
NORTHEAST WISCONSIN

CITY           SKY/WX    TMP DP  RH WIND       PRES   REMARKS
ANTIGO         PTSUNNY   49  23  36 CALM      30.13F
STURGEON BAY   PTSUNNY   45  19  36 E6        30.19S
GREEN BAY      MOSUNNY   48  27  44 VRB3      30.18F
MANITOWOC      MOSUNNY   46  20  35 CALM      30.19S
APPLETON       PTSUNNY   48  21  34 CALM      30.17F
CLINTONVILLE   PTSUNNY   50  25  37 SE9       30.16F
OSHKOSH        PTSUNNY   48  24  39 E8        30.16F
$$

WIZ032>034-041-042-053>061-232000-
SOUTHWEST WISCONSIN

CITY           SKY/WX    TMP DP  RH WIND       PRES   REMARKS
LA CROSSE      CLOUDY    52  29  41 S10       30.09F
SPARTA         CLOUDY    54  20  26 SE12      30.10F
VIROQUA        FAIR      50  24  37 SE9       30.10R
BOSCOBEL       CLOUDY    56  26  31 E10G16    30.11F
PRAIRIE DU CHI CLOUDY    50  27  40 E10       30.09F
PLATTEVILLE    FAIR      52  28  39 E9        30.11F
$$

WIZ056-057-062-063-064-067-068-232000-
SOUTH CENTRAL WISCONSIN

CITY           SKY/WX    TMP DP  RH WIND       PRES   REMARKS
BARABOO/DELLS  CLOUDY    53  23  31 E7        30.11F
LONE ROCK      CLOUDY    54  25  32 E14       30.11F
WATERTOWN      PTSUNNY   52  27  38 E7        30.13F
MADISON        CLOUDY    53  24  32 E8        30.13F
MIDDLETON      FAIR      55  22  28 E10       30.13F
MONROE         CLOUDY    55  25  32 E9        30.11F
JANESVILLE     SUNNY     55  25  30 E7        30.13F
$$

WIZ051-052-058>065-066-070>072-232000-
SOUTHEAST WISCONSIN

CITY           SKY/WX    TMP DP  RH WIND       PRES   REMARKS
MILWAUKEE      PTSUNNY   44  25  47 NE7       30.19F
WAUKESHA       NOT AVBL
MILWAUKEE/TIMM SUNNY     45  19  36 E8        30.19F
RACINE         SUNNY     44  25  47 E6        30.20S
BURLINGTON     SUNNY     50  24  36 E12G17    30.15F
KENOSHA        MOSUNNY   48  26  42 E9        30.18S
FOND DU LAC    PTSUNNY   50  28  42 NE9       30.15F
SHEBOYGAN      MOSUNNY   46  26  45 E6        30.18F
WEST BEND      PTSUNNY   48  21  34 E9        30.16F
JUNEAU         PTSUNNY   50  17  26 E7        30.15F
$$

LSZ147-162-232000-
LAKE SUPERIOR

STATION/POSITION TIME  TEMP    WIND        PRES    WAVE
                       AIR SEA DIR/SP/G            HT/PER
                 (UTC) (F)     (DEG/KT/KT) (MB)    (FT/S)
DEVILS ISLAND    1900   36      90/  5/  7 1021.1F
PORT WING        1840   35      20/ 11/ 14 1019.3F
SAXON HARBOR     1800          340/  1/  3 1020.7F
$$

LMZ867-665-643>646-232000-
LAKE MICHIGAN

STATION/POSITION TIME  TEMP    WIND        PRES    WAVE
                       AIR SEA DIR/SP/G            HT/PER
                 (UTC) (F)     (DEG/KT/KT) (MB)    (FT/S)
NORTHPORT PIER   1800   37     130/  8/  8 1022.7S
SISTER BAY       1808             CALM       N/A
KEWAUNEE LAKESHO 1800   38      60/  5/  8 1023.0F
SHEBOYGAN LAKESH 1900   36      70/  6/  6 1023.4S
PORT WASHINGTON  1800   38      60/  6/  7 1023.4R
MILWAUKEE LAKESH 1800   36      60/  6/  7   N/A
KENOSHA   LAKESH 1900   38      50/  7/  8   N/A
$$

TC  - TEMPERATURE IN CELSIUS
VSB - VISIBILITY IN STATUTE MILES
WCI - WIND CHILL INDEX
HX  - HEAT INDEX




USA.gov is the U.S. government's official web portal to all federal, state and local government web resources and services.